Temp
-7 -7 -7 -6 -6 -6 -6 -7 -7 -7 -6 -6 -7 -7 -7 -7 -7 -7 -6 -6 -6 -6 -6 -7 -7 -7 -7 -7 -7 -7 -7 -7 -7 -7 -6 -6 -6 -6 -6 -6 -6 -6 -6
-7 -7 -7 -7 -7 -7 -7 -7 -7 -7 -7 -7 -7 -7 -7 -7 -7 -6 -7 -6 -6 -6 -6 -6 -7 -7 -7 -7 -7 -7 -7 -7 -7 -7 -6 -6 -6 -6 -6 -6 -6 -6 -6
-7 -7 -7 -7 -7 -7 -7 -7 -7 -7 -7 -7 -7 -7 -7 -7 -7 -6 -6 -6 -6 -6 -6 -6 -6 -7 -7 -7 -7 -7 -7 -7 -7 -7 -6 -6 -6 -6 -6 -6 -6 -6 -6
-7 -7 -7 -7 -7 -7 -7 -8 -7 -7 -7 -7 -7 -7 -7 -7 -7 -7 -7 -6 -6 -6 -6 -6 -6 -6 -6 -6 -6 -6 -6 -6 -6 -6 -6 -6 -6 -6 -6 -6 -6 -6 -6
-6 -6 -7 -7 -7 -7 -8 -8 -8 -7 -7 -7 -7 -7 -7 -7 -7 -7 -7 -7 -6 -6 -6 -6 -6 -6 -6 -6 -6 -6 -6 -6 -6 -6 -6 -5 -5 -5 -6 -6 -6 -6 -6
-7 -8 -7 -7 -7 -7 -7 -7 -8 -8 -7 -7 -8 -8 -7 -8 -7 -7 -7 -7 -6 -6 -6 -6 -6 -6 -6 -6 -6 -6 -6 -6 -6 -6 -6 -6 -6 -6 -6 -6 -6 -6 -6
-8 -8 -8 -9 -7 -7 -7 -7 -7 -9 -9 -8 -8 -8 -8 -7 -7 -7 -7 -7 -7 -7 -6 -6 -6 -6 -6 -6 -6 -6 -6 -6 -6 -6 -6 -6 -6 -5 -6 -6 -6 -6 -6
-8 -8 -8 -7 -8 -7 -7 -7 -7 -8 -9 -8 -8 -8 -7 -8 -8 -8 -7 -7 -7 -7 -7 -6 -6 -6 -6 -6 -5 -6 -6 -6 -6 -6 -6 -6 -6 -6 -6 -6 -6 -6 -6
-9 -8 -7 -8 -8 -8 -8 -7 -7 -7 -8 -8 -8 -8 -8 -8 -8 -7 -7 -7 -7 -7 -7 -6 -6 -6 -6 -6 -6 -6 -6 -6 -6 -5 -5 -6 -6 -6 -5 -5 -5 -5 -6
-9 -9 -8 -8 -9 -9 -9 -9 -8 -8 -8 -8 -8 -8 -7 -8 -8 -8 -8 -7 -7 -7 -7 -7 -7 -7 -6 -6 -6 -6 -6 -6 -5 -5 -5 -6 -6 -6 -5 -5 -5 -5 -5
-10 -9 -9 -9 -9 -9 -9 -9 -9 -10 -11 -9 -9 -8 -8 -8 -8 -9 -9 -8 -7 -7 -7 -7 -7 -7 -7 -7 -6 -6 -7 -7 -6 -6 -6 -6 -6 -6 -6 -5 -5 -5 -5
-10 -10 -9 -9 -9 -9 -9 -9 -9 -9 -9 -9 -9 -9 -9 -9 -9 -9 -9 -8 -8 -7 -7 -7 -7 -7 -7 -7 -7 -7 -7 -7 -6 -6 -6 -6 -6 -6 -6 -5 -5 -5 -5
-10 -10 -9 -9 -9 -9 -9 -9 -9 -9 -9 -9 -9 -8 -8 -8 -8 -9 -8 -8 -8 -8 -8 -8 -8 -7 -7 -7 -7 -7 -7 -7 -7 -7 -6 -6 -6 -6 -6 -6 -6 -5 -5
-11 -11 -10 -10 -10 -10 -9 -10 -9 -9 -9 -9 -9 -9 -9 -9 -8 -8 -8 -8 -8 -8 -8 -8 -8 -7 -7 -8 -8 -7 -7 -7 -7 -7 -6 -6 -6 -6 -7 -7 -6 -6 -6
-12 -11 -11 -11 -11 -10 -10 -10 -10 -10 -10 -10 -10 -9 -9 -9 -9 -9 -9 -9 -8 -8 -8 -8 -8 -8 -8 -8 -8 -8 -8 -8 -7 -7 -7 -6 -7 -7 -7 -7 -7 -6 -6
-12 -12 -12 -12 -12 -12 -11 -11 -11 -11 -11 -11 -10 -10 -10 -10 -10 -9 -9 -9 -9 -9 -9 -9 -9 -8 -8 -8 -8 -8 -8 -8 -8 -8 -7 -7 -7 -7 -7 -7 -7 -6 -6
-14 -14 -13 -13 -13 -13 -13 -13 -12 -12 -11 -11 -11 -11 -11 -10 -10 -10 -10 -10 -9 -9 -9 -9 -8 -9 -9 -8 -8 -8 -8 -8 -8 -8 -8 -8 -7 -7 -7 -7 -7 -7 -6
-14 -14 -14 -14 -14 -14 -14 -14 -14 -14 -13 -13 -13 -12 -12 -11 -11 -11 -11 -10 -11 -10 -10 -9 -9 -9 -9 -9 -9 -8 -8 -8 -8 -8 -7 -8 -8 -7 -7 -7 -7 -7 -7
-15 -15 -15 -14 -14 -14 -14 -14 -14 -14 -14 -14 -14 -14 -13 -13 -13 -12 -12 -12 -11 -11 -11 -10 -10 -10 -9 -9 -9 -9 -9 -9 -8 -8 -8 -8 -8 -8 -7 -7 -7 -7 -7
-16 -15 -15 -15 -15 -15 -15 -15 -14 -15 -15 -15 -15 -15 -15 -14 -14 -13 -13 -13 -12 -12 -12 -11 -11 -11 -10 -10 -10 -10 -9 -9 -9 -9 -8 -8 -8 -8 -8 -8 -8 -7 -7
-17 -17 -17 -16 -16 -16 -16 -16 -16 -16 -16 -16 -16 -16 -16 -15 -15 -15 -15 -15 -14 -13 -13 -12 -12 -12 -12 -11 -11 -11 -10 -10 -10 -10 -9 -9 -8 -8 -8 -8 -8 -8 -8
-17 -17 -17 -17 -17 -17 -17 -17 -16 -16 -16 -16 -16 -16 -16 -16 -15 -15 -15 -15 -15 -15 -15 -15 -14 -13 -13 -12 -12 -11 -11 -11 -10 -10 -10 -9 -9 -9 -9 -8 -8 -8 -8
-17 -17 -17 -17 -17 -17 -17 -17 -17 -17 -16 -16 -16 -16 -16 -16 -15 -15 -15 -15 -15 -15 -15 -15 -14 -14 -15 -14 -14 -13 -13 -12 -12 -11 -11 -11 -10 -9 -9 -8 -9 -8 -8
-18 -18 -18 -18 -18 -18 -18 -18 -18 -18 -18 -18 -17 -17 -17 -17 -16 -16 -15 -15 -15 -15 -15 -15 -14 -14 -14 -14 -14 -14 -14 -14 -13 -13 -12 -12 -11 -10 -9 -9 -9 -9 -8
-20 -20 -19 -19 -19 -19 -19 -19 -19 -19 -19 -19 -19 -19 -19 -18 -17 -17 -16 -16 -16 -16 -15 -15 -15 -15 -14 -14 -14 -14 -14 -14 -14 -14 -13 -13 -13 -12 -11 -11 -10 -9 -9
-21 -21 -21 -21 -21 -21 -21 -20 -20 -21 -20 -20 -21 -20 -20 -20 -19 -18 -17 -18 -18 -17 -17 -17 -16 -16 -15 -15 -15 -15 -15 -15 -14 -14 -14 -13 -13 -13 -13 -12 -11 -10 -10
Height
5920 5920 5922 5927 5931 5931 5932 5934 5935 5938 5941 5943 5946 5947 5948 5948 5950 5951 5952 5954 5955 5956 5956 5956 5957 5958 5958 5959 5960 5960 5961 5962 5962 5963 5963 5963 5963 5964 5962 5961 5960 5959 5956
5914 5916 5917 5919 5925 5928 5930 5931 5931 5933 5936 5938 5940 5943 5946 5947 5948 5949 5950 5952 5954 5955 5955 5956 5956 5956 5957 5957 5958 5959 5960 5960 5961 5961 5962 5962 5961 5961 5961 5960 5959 5957 5956
5906 5909 5912 5915 5920 5923 5926 5929 5930 5932 5933 5935 5936 5939 5943 5944 5946 5947 5949 5951 5953 5953 5954 5955 5956 5956 5956 5956 5955 5956 5958 5958 5959 5960 5960 5960 5960 5960 5959 5958 5957 5954 5952
5898 5902 5905 5909 5912 5916 5919 5923 5926 5928 5930 5932 5933 5935 5937 5939 5942 5944 5946 5947 5949 5951 5951 5952 5953 5955 5955 5955 5955 5955 5956 5957 5957 5957 5957 5958 5958 5957 5957 5956 5954 5952 5949
5889 5895 5898 5900 5903 5907 5910 5916 5919 5921 5924 5927 5929 5931 5933 5934 5936 5939 5942 5944 5945 5947 5949 5951 5951 5951 5952 5952 5953 5953 5953 5954 5954 5953 5954 5954 5954 5954 5953 5953 5951 5949 5945
5886 5887 5890 5894 5897 5900 5902 5905 5910 5915 5919 5921 5923 5925 5928 5931 5932 5934 5937 5939 5941 5942 5944 5946 5947 5949 5948 5949 5949 5950 5950 5950 5950 5950 5949 5949 5950 5950 5950 5949 5949 5946 5944
5883 5885 5886 5888 5890 5892 5896 5898 5900 5905 5911 5914 5916 5919 5923 5925 5927 5929 5932 5934 5935 5937 5939 5941 5943 5944 5945 5944 5945 5946 5947 5947 5947 5947 5946 5945 5945 5945 5946 5945 5945 5943 5941
5880 5881 5882 5883 5884 5886 5886 5889 5892 5896 5901 5906 5909 5911 5914 5917 5920 5922 5925 5929 5929 5930 5931 5935 5938 5938 5939 5940 5940 5942 5942 5942 5942 5943 5942 5941 5942 5940 5941 5940 5939 5937 5936
5874 5876 5878 5878 5880 5879 5881 5880 5884 5888 5892 5896 5900 5904 5908 5909 5911 5914 5917 5920 5922 5924 5924 5926 5931 5933 5932 5934 5936 5935 5935 5935 5934 5935 5936 5936 5935 5934 5933 5935 5933 5933 5933
5869 5871 5872 5874 5875 5877 5877 5877 5877 5879 5885 5889 5892 5897 5898 5899 5901 5905 5910 5913 5916 5917 5917 5918 5921 5923 5925 5925 5927 5927 5928 5926 5926 5927 5929 5929 5929 5927 5926 5926 5926 5927 5927
5862 5865 5867 5868 5869 5871 5873 5875 5876 5876 5879 5883 5885 5887 5890 5892 5894 5898 5901 5905 5908 5908 5910 5911 5913 5915 5916 5916 5916 5917 5918 5920 5919 5920 5920 5920 5920 5920 5919 5917 5918 5919 5920
5853 5855 5858 5861 5862 5864 5866 5869 5872 5873 5875 5876 5878 5879 5880 5882 5886 5889 5893 5896 5898 5900 5902 5903 5904 5905 5906 5906 5906 5906 5906 5908 5910 5911 5911 5912 5911 5910 5910 5910 5909 5908 5909
5844 5847 5849 5852 5854 5855 5856 5859 5862 5865 5866 5868 5871 5872 5873 5875 5878 5881 5884 5885 5887 5889 5891 5892 5893 5894 5894 5894 5895 5896 5896 5896 5898 5900 5900 5900 5900 5900 5901 5900 5899 5899 5898
5831 5833 5836 5840 5842 5844 5846 5847 5850 5853 5856 5857 5859 5861 5862 5865 5867 5870 5871 5873 5875 5877 5879 5880 5880 5881 5881 5882 5882 5883 5884 5885 5886 5888 5889 5889 5888 5889 5890 5888 5889 5888 5889
5817 5819 5821 5824 5827 5831 5833 5834 5836 5839 5840 5843 5846 5848 5851 5852 5854 5857 5859 5860 5862 5864 5865 5866 5867 5868 5869 5869 5870 5871 5871 5871 5873 5875 5877 5877 5876 5877 5877 5876 5876 5877 5877
5802 5804 5807 5809 5810 5813 5816 5820 5822 5823 5825 5827 5829 5831 5833 5836 5839 5840 5842 5845 5847 5849 5850 5851 5852 5852 5854 5855 5856 5857 5857 5859 5859 5859 5862 5863 5864 5864 5865 5865 5864 5864 5865
5788 5790 5792 5794 5796 5798 5799 5801 5804 5806 5808 5811 5813 5815 5817 5819 5822 5824 5825 5826 5827 5830 5833 5834 5836 5837 5837 5839 5841 5842 5845 5845 5844 5845 5847 5849 5850 5851 5852 5853 5852 5851 5852
5774 5776 5778 5780 5782 5784 5785 5787 5788 5790 5792 5793 5795 5797 5799 5802 5804 5804 5806 5808 5809 5810 5812 5814 5815 5816 5819 5821 5823 5825 5827 5828 5828 5829 5830 5832 5834 5835 5837 5838 5838 5838 5839
5760 5762 5763 5765 5767 5769 5770 5772 5773 5774 5775 5776 5777 5779 5782 5784 5784 5785 5786 5787 5789 5790 5791 5792 5793 5795 5797 5799 5802 5805 5807 5809 5810 5812 5813 5815 5816 5817 5820 5821 5823 5824 5824
5745 5747 5748 5750 5752 5753 5754 5756 5756 5757 5758 5759 5759 5760 5760 5762 5764 5765 5765 5766 5767 5769 5770 5771 5771 5772 5773 5775 5778 5781 5783 5786 5788 5791 5793 5795 5797 5799 5801 5803 5805 5806 5808
5730 5731 5733 5734 5735 5736 5737 5738 5739 5740 5740 5740 5740 5740 5741 5742 5742 5741 5741 5742 5742 5744 5745 5747 5750 5751 5751 5751 5754 5757 5760 5761 5763 5765 5768 5772 5775 5778 5779 5782 5786 5786 5789
5715 5716 5717 5718 5718 5718 5719 5719 5720 5720 5720 5720 5720 5719 5718 5718 5718 5719 5719 5719 5719 5719 5719 5720 5722 5723 5724 5725 5729 5731 5733 5736 5738 5738 5740 5745 5750 5754 5757 5760 5763 5766 5769
5699 5699 5699 5699 5700 5700 5700 5700 5700 5700 5699 5697 5696 5694 5693 5692 5692 5692 5693 5693 5694 5695 5694 5694 5694 5695 5695 5696 5698 5701 5704 5707 5708 5711 5713 5716 5722 5727 5732 5736 5740 5744 5747
5682 5682 5683 5682 5682 5682 5682 5681 5679 5678 5676 5674 5672 5669 5668 5667 5665 5664 5663 5663 5663 5662 5662 5663 5663 5663 5664 5664 5666 5669 5672 5675 5676 5680 5683 5686 5690 5696 5702 5708 5713 5718 5722
5664 5666 5666 5666 5666 5666 5665 5664 5661 5658 5655 5652 5648 5644 5640 5636 5634 5633 5632 5632 5630 5628 5626 5624 5625 5627 5628 5630 5632 5635 5638 5641 5643 5646 5648 5652 5658 5665 5671 5677 5683 5688 5694
5651 5651 5651 5651 5651 5650 5649 5648 5645 5641 5637 5632 5626 5620 5613 5607 5604 5602 5599 5594 5590 5589 5588 5587 5587 5588 5590 5592 5594 5596 5599 5603 5606 5609 5610 5617 5624 5631 5636 5643 5651 5657 5665
Wind_Speed
23 22 22 23 22 20 19 19 19 19 19 16 14 13 13 14 12 12 12 12 12 13 14 15 13 12 11 11 10 10 9 10 10 11 12 12 14 11 14 15 17 18 20
26 27 26 26 25 24 22 22 24 25 22 20 18 16 15 14 14 15 13 13 13 12 13 14 15 15 14 13 11 10 12 12 12 13 14 14 16 16 17 18 18 19 21
29 29 30 28 27 29 27 24 24 24 24 24 21 20 18 16 16 15 13 13 14 14 14 14 14 15 15 14 14 14 12 12 13 14 15 14 16 16 19 20 20 22 22
34 28 30 32 31 32 32 30 28 27 27 28 26 24 22 20 18 16 15 15 14 13 14 14 14 16 16 15 15 15 14 14 14 14 16 16 17 17 18 20 21 23 25
35 28 34 36 35 39 36 35 32 32 30 30 29 27 26 27 24 22 19 17 16 15 14 14 15 14 16 16 16 16 17 17 17 18 18 19 19 20 21 22 23 24 26
14 15 27 34 33 33 32 28 38 36 34 34 33 32 30 29 27 25 23 21 19 18 18 17 17 17 16 16 15 15 16 16 17 17 17 18 18 18 18 19 21 22 25
16 16 13 15 25 33 34 35 34 40 40 39 37 33 32 32 30 28 27 26 24 23 22 22 22 21 21 19 19 18 19 18 19 19 18 19 19 18 17 19 20 22 24
15 18 20 21 20 43 34 40 35 45 46 43 44 41 38 35 32 30 29 29 28 27 26 28 29 28 27 25 23 21 22 22 22 21 21 22 20 21 19 19 21 23 25
18 18 20 18 21 22 22 23 32 38 48 52 46 40 42 38 35 32 32 32 33 32 30 31 32 33 33 31 28 28 28 28 30 28 26 26 26 27 28 25 26 24 24
21 22 21 21 19 19 27 33 23 15 29 33 43 42 37 40 38 35 34 34 33 34 35 34 34 35 37 37 34 33 32 34 35 34 32 32 32 33 35 33 32 30 28
23 23 23 24 25 24 22 19 24 28 28 23 24 29 43 43 39 34 36 37 35 35 37 36 38 38 38 40 40 38 37 37 37 37 37 36 36 36 38 39 38 34 32
32 31 31 30 30 30 29 27 25 23 25 27 28 29 31 30 31 32 32 34 34 36 37 37 39 39 39 41 41 43 43 41 40 40 40 40 40 41 41 41 41 42 40
42 38 37 37 35 36 36 34 32 30 30 30 31 33 34 35 35 35 35 39 38 39 40 41 41 42 42 43 44 45 45 45 44 40 40 43 44 44 44 45 44 44 44
48 45 42 42 42 41 41 40 40 38 37 36 36 36 37 39 40 41 42 43 43 44 46 47 47 46 46 46 46 47 47 47 46 46 44 41 43 44 44 46 46 47 46
47 47 47 47 46 46 47 46 46 45 45 44 44 44 44 44 44 43 44 46 46 48 47 48 49 49 48 48 48 50 51 51 48 48 46 43 42 42 40 41 43 42 42
48 48 48 48 47 47 47 48 50 50 49 50 50 50 51 50 50 51 51 52 52 52 52 52 53 53 53 52 52 51 53 52 53 55 49 47 45 43 41 44 45 44 41
44 45 45 46 46 46 46 47 48 49 52 52 52 54 55 56 56 56 56 58 59 59 60 60 59 58 58 56 57 56 55 56 56 54 54 53 52 48 45 45 45 45 45
45 45 45 46 47 47 47 47 48 49 50 52 53 54 55 56 58 60 61 62 61 62 63 64 64 64 63 63 62 62 62 61 61 60 59 57 55 55 53 51 50 48 46
47 48 49 50 50 50 50 50 50 50 51 52 53 54 56 57 59 61 63 64 65 66 67 68 68 68 69 69 68 66 65 65 66 66 65 64 62 60 58 58 57 55 53
48 50 51 52 53 53 54 55 56 56 56 57 58 59 61 61 62 64 67 68 70 70 71 71 71 73 73 73 73 73 71 71 70 69 69 69 68 68 65 62 62 62 60
48 48 50 52 52 53 54 55 56 56 57 59 60 62 64 66 67 68 69 70 72 73 73 74 75 75 77 79 79 77 77 76 75 75 75 74 72 71 71 70 68 66 65
54 54 54 55 55 56 58 59 60 62 63 64 66 67 68 70 71 71 71 71 73 73 74 77 77 78 81 83 83 83 83 81 81 81 82 81 80 78 76 74 73 72 70
59 59 60 61 61 62 62 63 64 65 67 68 70 72 74 76 79 80 80 79 79 79 82 83 83 84 84 85 87 87 85 86 87 87 87 87 87 85 83 81 79 76 75
55 56 57 59 59 59 60 61 62 63 65 68 71 75 78 80 83 85 88 89 91 91 90 90 89 89 89 89 89 90 87 88 89 89 90 91 90 89 88 86 84 81 80
47 48 48 49 50 50 52 54 57 58 61 64 68 72 77 82 86 89 90 91 92 94 95 95 94 94 95 96 96 97 96 96 95 95 96 97 95 93 93 89 87 85 83
45 45 46 47 45 46 48 49 51 52 52 55 67 77 78 76 79 83 85 83 83 86 89 91 93 94 95 96 98 99 99 99 99 99 100 100 99 97 95 92 90 89 86
Wind_Direction
224 226 221 224 227 222 214 208 203 204 198 192 196 201 197 195 191 197 199 202 195 190 190 187 189 190 189 196 208 209 223 241 252 261 269 278 288 304 293 299 305 311 313
224 221 223 220 221 226 228 224 214 209 202 200 197 205 208 202 200 202 203 213 212 202 204 210 201 198 200 203 213 226 237 252 263 270 273 277 285 293 301 304 307 310 310
227 227 221 222 221 222 224 227 233 224 214 210 205 207 208 210 207 208 205 213 223 221 222 228 228 216 217 218 217 223 230 243 255 264 274 282 288 295 299 305 309 306 310
221 224 228 221 222 224 220 221 223 228 227 221 217 217 213 214 218 218 213 215 223 225 225 231 241 242 233 232 234 238 241 246 257 267 276 279 282 288 290 296 300 307 309
224 218 239 234 229 230 221 219 220 226 227 228 224 220 221 216 217 222 223 220 223 232 233 235 239 243 249 248 252 255 256 261 263 267 276 284 288 292 295 298 300 305 308
217 206 239 237 240 243 231 226 215 223 227 228 227 223 221 223 222 225 227 231 233 233 241 245 246 247 244 250 251 254 257 261 267 271 274 278 284 288 294 297 303 306 307
260 254 264 278 244 231 231 231 224 216 223 227 228 227 227 226 228 229 230 231 232 236 244 248 250 250 254 251 256 258 263 264 266 269 274 278 285 290 293 297 298 297 300
247 247 255 265 261 235 249 230 232 222 216 224 227 223 228 227 229 230 232 236 239 239 241 250 256 256 256 256 255 259 263 268 269 272 274 277 279 285 284 282 284 286 292
257 256 259 260 269 267 267 225 229 224 224 226 226 228 227 229 229 231 233 236 240 244 245 248 254 260 261 262 263 263 264 266 265 266 268 272 275 276 279 280 280 284 287
259 261 262 264 267 267 282 277 260 233 223 239 238 231 233 231 233 235 239 238 240 244 246 248 250 255 261 263 260 261 262 265 270 271 270 271 274 277 281 283 282 285 289
270 270 267 267 268 271 274 271 275 281 286 277 260 245 243 239 232 234 241 246 244 246 250 254 258 260 260 263 266 266 264 263 266 269 273 275 277 278 280 283 285 285 283
271 275 272 270 271 270 271 270 265 258 256 257 258 261 267 259 244 240 244 248 251 252 253 255 257 260 262 265 266 267 268 268 267 268 270 271 272 274 276 279 282 285 286
268 269 269 268 267 268 269 269 268 264 262 256 255 254 253 248 249 251 249 249 249 249 250 253 257 260 261 263 264 265 266 267 267 266 267 269 270 272 276 278 280 282 283
268 270 266 264 265 267 267 268 268 267 264 262 260 257 255 255 256 255 253 252 252 253 254 254 255 256 257 258 261 264 266 267 267 269 268 271 269 270 271 273 276 277 279
265 267 268 269 267 266 266 267 268 267 267 266 263 262 260 259 258 256 255 256 257 257 257 257 259 259 260 260 261 262 264 266 265 266 269 271 271 271 272 272 275 275 277
261 263 264 265 265 265 263 263 263 264 264 264 265 265 264 262 261 261 261 259 258 257 257 258 260 259 259 260 261 262 264 266 268 267 267 268 270 272 267 269 274 275 277
254 255 256 257 257 257 256 257 258 260 262 262 261 262 263 265 265 263 262 262 262 260 260 259 258 258 260 260 261 261 263 265 265 266 268 268 268 266 264 266 269 272 274
254 255 256 257 257 256 256 255 256 255 254 253 254 255 256 256 258 261 262 263 262 263 263 262 262 262 261 260 259 260 260 260 262 265 265 265 265 265 265 265 266 269 271
255 255 256 257 258 259 259 258 258 257 257 257 256 254 252 253 254 254 256 257 259 261 262 264 265 265 265 264 264 262 261 260 260 260 260 263 265 264 264 265 266 266 267
258 259 259 259 259 259 259 260 260 259 259 259 258 259 259 260 258 257 257 256 256 257 258 260 262 264 264 265 264 265 265 264 263 261 261 260 260 261 263 262 264 265 266
258 258 259 260 260 259 259 259 259 259 260 261 262 262 261 260 260 261 261 259 259 259 259 257 258 260 261 262 263 263 263 264 264 264 264 262 261 260 260 261 261 261 263
263 263 264 263 262 263 263 264 264 265 265 266 266 267 266 266 265 263 262 263 264 263 263 263 261 258 257 258 260 261 261 261 262 263 263 263 264 263 262 261 261 261 261
266 267 269 269 270 270 271 271 271 272 273 274 274 274 274 274 272 270 268 267 265 266 266 264 264 262 261 261 262 262 261 261 261 261 261 262 263 263 264 263 263 262 262
265 266 268 270 272 273 275 276 277 278 278 278 278 277 276 276 275 275 274 273 273 272 271 268 267 265 264 264 263 262 262 262 261 261 261 260 260 261 261 261 261 261 262
264 265 267 268 270 273 275 277 280 284 285 286 287 288 287 283 279 277 276 276 276 274 272 271 270 268 267 266 265 264 262 262 261 262 262 260 260 259 259 258 258 257 257
268 270 271 274 276 277 279 282 285 289 291 293 300 299 294 288 285 282 279 277 276 274 273 271 271 269 267 265 264 262 261 260 260 260 259 259 259 259 258 257 256 255 254